Year,Month,Day,Hour,Minute,Value (Times are PST for temperature in C)
2004,08,11,00,00,18.70
2004,08,11,00,01,18.70
2004,08,11,00,02,18.70
2004,08,11,00,03,18.70
2004,08,11,00,04,18.60
2004,08,11,00,05,18.60
2004,08,11,00,06,18.50
2004,08,11,00,07,18.50
2004,08,11,00,08,18.50
2004,08,11,00,09,18.50
2004,08,11,00,10,18.50
2004,08,11,00,11,18.50
2004,08,11,00,12,18.50
2004,08,11,00,13,18.50
2004,08,11,00,14,18.40
2004,08,11,00,15,18.40
2004,08,11,00,16,18.40
2004,08,11,00,17,18.30
2004,08,11,00,18,18.30
2004,08,11,00,19,18.30
2004,08,11,00,20,18.30
2004,08,11,00,21,18.20
2004,08,11,00,22,18.20
2004,08,11,00,23,18.20
2004,08,11,00,24,18.20
2004,08,11,00,25,18.20
2004,08,11,00,26,18.20
2004,08,11,00,27,18.30
2004,08,11,00,28,18.30
2004,08,11,00,29,18.20
2004,08,11,00,30,18.30
2004,08,11,00,31,18.20
2004,08,11,00,32,18.20
2004,08,11,00,33,18.20
2004,08,11,00,34,18.20
2004,08,11,00,35,18.20
2004,08,11,00,36,18.20
2004,08,11,00,37,18.20
2004,08,11,00,38,18.10
2004,08,11,00,39,18.10
2004,08,11,00,40,18.10
2004,08,11,00,41,18.10
2004,08,11,00,42,18.00
2004,08,11,00,43,17.90
2004,08,11,00,44,17.90
2004,08,11,00,45,17.90
2004,08,11,00,46,17.90
2004,08,11,00,47,17.90
2004,08,11,00,48,18.00
2004,08,11,00,49,18.10
2004,08,11,00,50,18.10
2004,08,11,00,51,18.20
2004,08,11,00,52,18.10
2004,08,11,00,53,18.10
2004,08,11,00,54,18.10
2004,08,11,00,55,18.00
2004,08,11,00,56,17.90
2004,08,11,00,57,17.90
2004,08,11,00,58,17.90
2004,08,11,00,59,17.90
2004,08,11,01,00,17.90
2004,08,11,01,01,17.90
2004,08,11,01,02,17.90
2004,08,11,01,03,17.90
2004,08,11,01,04,17.90
2004,08,11,01,05,17.90
2004,08,11,01,06,17.90
2004,08,11,01,07,17.90
2004,08,11,01,08,17.90
2004,08,11,01,09,17.90
2004,08,11,01,10,17.90
2004,08,11,01,11,17.90
2004,08,11,01,12,17.90
2004,08,11,01,13,17.90
2004,08,11,01,14,17.90
2004,08,11,01,15,17.90
2004,08,11,01,16,17.80
2004,08,11,01,17,17.70
2004,08,11,01,18,17.50
2004,08,11,01,19,17.50
2004,08,11,01,20,17.40
2004,08,11,01,21,17.30
2004,08,11,01,22,17.10
2004,08,11,01,23,17.00
2004,08,11,01,24,16.90
2004,08,11,01,25,16.80
2004,08,11,01,26,16.80
2004,08,11,01,27,16.90
2004,08,11,01,28,17.00
2004,08,11,01,29,16.90
2004,08,11,01,30,16.90
2004,08,11,01,31,16.80
2004,08,11,01,32,16.70
2004,08,11,01,33,16.70
2004,08,11,01,34,16.70
2004,08,11,01,35,16.70
2004,08,11,01,36,16.70
2004,08,11,01,37,16.70
2004,08,11,01,38,16.70
2004,08,11,01,39,16.80
2004,08,11,01,40,16.80
2004,08,11,01,41,16.90
2004,08,11,01,42,17.00
2004,08,11,01,43,16.90
2004,08,11,01,44,16.90
2004,08,11,01,45,16.90
2004,08,11,01,46,16.90
2004,08,11,01,47,16.90
2004,08,11,01,48,16.90
2004,08,11,01,49,16.90
2004,08,11,01,50,16.90
2004,08,11,01,51,16.80
2004,08,11,01,52,16.70
2004,08,11,01,53,16.80
2004,08,11,01,54,16.90
2004,08,11,01,55,16.90
2004,08,11,01,56,17.00
2004,08,11,01,57,17.00
2004,08,11,01,58,16.90
2004,08,11,01,59,16.90
2004,08,11,02,00,16.90
2004,08,11,02,01,16.90
2004,08,11,02,02,16.90
2004,08,11,02,03,16.90
2004,08,11,02,04,16.90
2004,08,11,02,05,16.90
2004,08,11,02,06,16.90
2004,08,11,02,07,16.80
2004,08,11,02,08,16.80
2004,08,11,02,09,16.80
2004,08,11,02,10,16.70
2004,08,11,02,11,16.50
2004,08,11,02,12,16.40
2004,08,11,02,13,16.20
2004,08,11,02,14,16.10
2004,08,11,02,15,16.00
2004,08,11,02,16,15.90
2004,08,11,02,17,15.80
2004,08,11,02,18,15.60
2004,08,11,02,19,15.60
2004,08,11,02,20,15.50
2004,08,11,02,21,15.50
2004,08,11,02,22,15.40
2004,08,11,02,23,15.40
2004,08,11,02,24,15.30
2004,08,11,02,25,15.30
2004,08,11,02,26,15.20
2004,08,11,02,27,15.10
2004,08,11,02,28,15.10
2004,08,11,02,29,15.10
2004,08,11,02,30,15.10
2004,08,11,02,31,15.00
2004,08,11,02,32,15.00
2004,08,11,02,33,14.90
2004,08,11,02,34,14.90
2004,08,11,02,35,14.80
2004,08,11,02,36,14.80
2004,08,11,02,37,14.80
2004,08,11,02,38,14.80
2004,08,11,02,39,14.80
2004,08,11,02,40,14.80
2004,08,11,02,41,14.90
2004,08,11,02,42,14.90
2004,08,11,02,43,15.00
2004,08,11,02,44,15.00
2004,08,11,02,45,15.00
2004,08,11,02,46,15.10
2004,08,11,02,47,15.10
2004,08,11,02,48,15.00
2004,08,11,02,49,15.00
2004,08,11,02,50,15.00
2004,08,11,02,51,15.10
2004,08,11,02,52,15.10
2004,08,11,02,53,15.20
2004,08,11,02,54,15.20
2004,08,11,02,55,15.20
2004,08,11,02,56,15.20
2004,08,11,02,57,15.20
2004,08,11,02,58,15.20
2004,08,11,02,59,15.30
2004,08,11,03,00,15.20
2004,08,11,03,01,15.20
2004,08,11,03,02,15.10
2004,08,11,03,03,15.00
2004,08,11,03,04,14.90
2004,08,11,03,05,14.90
2004,08,11,03,06,14.90
2004,08,11,03,07,14.80
2004,08,11,03,08,14.80
2004,08,11,03,09,14.80
2004,08,11,03,10,14.70
2004,08,11,03,11,14.60
2004,08,11,03,12,14.50
2004,08,11,03,13,14.50
2004,08,11,03,14,14.50
2004,08,11,03,15,14.40
2004,08,11,03,16,14.40
2004,08,11,03,17,14.30
2004,08,11,03,18,14.30
2004,08,11,03,19,14.30
2004,08,11,03,20,14.20
2004,08,11,03,21,14.20
2004,08,11,03,22,14.20
2004,08,11,03,23,14.20
2004,08,11,03,24,14.20
2004,08,11,03,25,14.20
2004,08,11,03,26,14.20
2004,08,11,03,27,14.20
2004,08,11,03,28,14.20
2004,08,11,03,29,14.20
2004,08,11,03,30,14.20
2004,08,11,03,31,14.20
2004,08,11,03,32,14.20
2004,08,11,03,33,14.20
2004,08,11,03,34,14.20
2004,08,11,03,35,14.20
2004,08,11,03,36,14.20
2004,08,11,03,37,14.20
2004,08,11,03,38,14.20
2004,08,11,03,39,14.20
2004,08,11,03,40,14.20
2004,08,11,03,41,14.20
2004,08,11,03,42,14.20
2004,08,11,03,43,14.20
2004,08,11,03,44,14.20
2004,08,11,03,45,14.20
2004,08,11,03,46,14.30
2004,08,11,03,47,14.30
2004,08,11,03,48,14.40
2004,08,11,03,49,14.50
2004,08,11,03,50,14.60
2004,08,11,03,51,14.60
2004,08,11,03,52,14.60
2004,08,11,03,53,14.70
2004,08,11,03,54,14.80
2004,08,11,03,55,14.80
2004,08,11,03,56,14.80
2004,08,11,03,57,14.80
2004,08,11,03,58,14.90
2004,08,11,03,59,14.90
2004,08,11,04,00,14.90
2004,08,11,04,01,14.90
2004,08,11,04,02,14.80
2004,08,11,04,03,14.80
2004,08,11,04,04,14.80
2004,08,11,04,05,14.70
2004,08,11,04,06,14.70
2004,08,11,04,07,14.70
2004,08,11,04,08,14.60
2004,08,11,04,09,14.60
2004,08,11,04,10,14.60
2004,08,11,04,11,14.60
2004,08,11,04,12,14.70
2004,08,11,04,13,14.80
2004,08,11,04,14,14.90
2004,08,11,04,15,14.90
2004,08,11,04,16,14.90
2004,08,11,04,17,15.00
2004,08,11,04,18,15.00
2004,08,11,04,19,15.00
2004,08,11,04,20,15.00
2004,08,11,04,21,15.00
2004,08,11,04,22,15.00
2004,08,11,04,23,15.00
2004,08,11,04,24,15.00
2004,08,11,04,25,15.00
2004,08,11,04,26,15.00
2004,08,11,04,27,15.00
2004,08,11,04,28,15.00
2004,08,11,04,29,15.10
2004,08,11,04,30,15.10
2004,08,11,04,31,15.00
2004,08,11,04,32,15.00
2004,08,11,04,33,15.00
2004,08,11,04,34,15.00
2004,08,11,04,35,15.00
2004,08,11,04,36,14.90
2004,08,11,04,37,15.00
2004,08,11,04,38,15.00
2004,08,11,04,39,15.10
2004,08,11,04,40,15.10
2004,08,11,04,41,15.10
2004,08,11,04,42,15.10
2004,08,11,04,43,15.10
2004,08,11,04,44,15.10
2004,08,11,04,45,15.20
2004,08,11,04,46,15.20
2004,08,11,04,47,15.20
2004,08,11,04,48,15.20
2004,08,11,04,49,15.20
2004,08,11,04,50,15.20
2004,08,11,04,51,15.20
2004,08,11,04,52,15.20
2004,08,11,04,53,15.20
2004,08,11,04,54,15.10
2004,08,11,04,55,15.10
2004,08,11,04,56,15.10
2004,08,11,04,57,15.10
2004,08,11,04,58,15.10
2004,08,11,04,59,15.00
2004,08,11,05,00,15.00
2004,08,11,05,01,15.00
2004,08,11,05,02,15.00
2004,08,11,05,03,14.90
2004,08,11,05,04,14.90
2004,08,11,05,05,15.00
2004,08,11,05,06,15.00
2004,08,11,05,07,15.00
2004,08,11,05,08,15.10
2004,08,11,05,09,15.10
2004,08,11,05,10,15.20
2004,08,11,05,11,15.20
2004,08,11,05,12,15.30
2004,08,11,05,13,15.30
2004,08,11,05,14,15.20
2004,08,11,05,15,15.10
2004,08,11,05,16,15.10
2004,08,11,05,17,15.10
2004,08,11,05,18,15.00
2004,08,11,05,19,15.00
2004,08,11,05,20,15.00
2004,08,11,05,21,15.00
2004,08,11,05,22,15.00
2004,08,11,05,23,15.00
2004,08,11,05,24,15.00
2004,08,11,05,25,15.00
2004,08,11,05,26,14.90
2004,08,11,05,27,14.90
2004,08,11,05,28,14.80
2004,08,11,05,29,14.80
2004,08,11,05,30,14.80
2004,08,11,05,31,14.80
2004,08,11,05,32,14.80
2004,08,11,05,33,14.80
2004,08,11,05,34,14.70
2004,08,11,05,35,14.70
2004,08,11,05,36,14.70
2004,08,11,05,37,14.70
2004,08,11,05,38,14.60
2004,08,11,05,39,14.60
2004,08,11,05,40,14.60
2004,08,11,05,41,14.60
2004,08,11,05,42,14.70
2004,08,11,05,43,14.70
2004,08,11,05,44,14.70
2004,08,11,05,45,14.80
2004,08,11,05,46,14.80
2004,08,11,05,47,14.80
2004,08,11,05,48,14.80
2004,08,11,05,49,14.80
2004,08,11,05,50,14.80
2004,08,11,05,51,14.80
2004,08,11,05,52,14.70
2004,08,11,05,53,14.70
2004,08,11,05,54,14.70
2004,08,11,05,55,14.80
2004,08,11,05,56,14.80
2004,08,11,05,57,14.80
2004,08,11,05,58,14.80
2004,08,11,05,59,14.80
2004,08,11,06,00,14.70
2004,08,11,06,01,14.70
2004,08,11,06,02,14.70
2004,08,11,06,03,14.70
2004,08,11,06,04,14.70
2004,08,11,06,05,14.60
2004,08,11,06,06,14.50
2004,08,11,06,07,14.50
2004,08,11,06,08,14.40
2004,08,11,06,09,14.40
2004,08,11,06,10,14.40
2004,08,11,06,11,14.40
2004,08,11,06,12,14.40
2004,08,11,06,13,14.50
2004,08,11,06,14,14.50
2004,08,11,06,15,14.50
2004,08,11,06,16,14.50
2004,08,11,06,17,14.50
2004,08,11,06,18,14.50
2004,08,11,06,19,14.50
2004,08,11,06,20,14.60
2004,08,11,06,21,14.60
2004,08,11,06,22,14.70
2004,08,11,06,23,14.70
2004,08,11,06,24,14.80
2004,08,11,06,25,14.80
2004,08,11,06,26,14.90
2004,08,11,06,27,14.90
2004,08,11,06,28,14.90
2004,08,11,06,29,14.90
2004,08,11,06,30,14.90
2004,08,11,06,31,14.90
2004,08,11,06,32,14.90
2004,08,11,06,33,15.00
2004,08,11,06,34,15.00
2004,08,11,06,35,15.10
2004,08,11,06,36,15.10
2004,08,11,06,37,15.20
2004,08,11,06,38,15.20
2004,08,11,06,39,15.20
2004,08,11,06,40,15.20
2004,08,11,06,41,15.30
2004,08,11,06,42,15.30
2004,08,11,06,43,15.40
2004,08,11,06,44,15.50
2004,08,11,06,45,15.60
2004,08,11,06,46,15.70
2004,08,11,06,47,15.80
2004,08,11,06,48,15.90
2004,08,11,06,49,16.00
2004,08,11,06,50,16.10
2004,08,11,06,51,16.10
2004,08,11,06,52,16.20
2004,08,11,06,53,16.30
2004,08,11,06,54,16.40
2004,08,11,06,55,16.40
2004,08,11,06,56,16.50
2004,08,11,06,57,16.60
2004,08,11,06,58,16.70
2004,08,11,06,59,16.80
2004,08,11,07,00,16.90
2004,08,11,07,01,16.90
2004,08,11,07,02,17.00
2004,08,11,07,03,17.00
2004,08,11,07,04,17.10
2004,08,11,07,05,17.10
2004,08,11,07,06,17.20
2004,08,11,07,07,17.30
2004,08,11,07,08,17.30
2004,08,11,07,09,17.30
2004,08,11,07,10,17.30
2004,08,11,07,11,17.30
2004,08,11,07,12,17.30
2004,08,11,07,13,17.30
2004,08,11,07,14,17.30
2004,08,11,07,15,17.40
2004,08,11,07,16,17.40
2004,08,11,07,17,17.50
2004,08,11,07,18,17.50
2004,08,11,07,19,17.60
2004,08,11,07,20,17.60
2004,08,11,07,21,17.70
2004,08,11,07,22,17.70
2004,08,11,07,23,17.80
2004,08,11,07,24,17.80
2004,08,11,07,25,17.80
2004,08,11,07,26,17.90
2004,08,11,07,27,17.90
2004,08,11,07,28,17.90
2004,08,11,07,29,17.90
2004,08,11,07,30,17.90
2004,08,11,07,31,17.90
2004,08,11,07,32,18.00
2004,08,11,07,33,18.10
2004,08,11,07,34,18.10
2004,08,11,07,35,18.20
2004,08,11,07,36,18.30
2004,08,11,07,37,18.30
2004,08,11,07,38,18.30
2004,08,11,07,39,18.50
2004,08,11,07,40,18.50
2004,08,11,07,41,18.60
2004,08,11,07,42,18.60
2004,08,11,07,43,18.70
2004,08,11,07,44,18.70
2004,08,11,07,45,18.90
2004,08,11,07,46,18.90
2004,08,11,07,47,18.90
2004,08,11,07,48,19.00
2004,08,11,07,49,19.10
2004,08,11,07,50,19.30
2004,08,11,07,51,19.40
2004,08,11,07,52,19.40
2004,08,11,07,53,19.50
2004,08,11,07,54,19.50
2004,08,11,07,59,19.90
2004,08,11,08,00,19.90
2004,08,11,08,01,19.90
2004,08,11,08,02,19.90
2004,08,11,08,03,19.90
2004,08,11,08,04,19.90
2004,08,11,08,05,19.90
2004,08,11,08,06,19.90
2004,08,11,08,07,20.00
2004,08,11,08,08,20.20
2004,08,11,08,09,20.20
2004,08,11,08,10,20.20
2004,08,11,08,11,20.20
2004,08,11,08,12,20.20
2004,08,11,08,13,20.40
2004,08,11,08,14,20.50
2004,08,11,08,15,20.60
2004,08,11,08,16,20.70
2004,08,11,08,17,20.70
2004,08,11,08,18,20.70
2004,08,11,08,19,20.70
2004,08,11,08,20,20.70
2004,08,11,08,21,20.70
2004,08,11,08,22,20.80
2004,08,11,08,23,21.00
2004,08,11,08,24,21.10
2004,08,11,08,25,21.20
2004,08,11,08,26,21.20
2004,08,11,08,27,21.20
2004,08,11,08,28,21.20
2004,08,11,08,29,21.30
2004,08,11,08,30,21.30
2004,08,11,08,31,21.30
2004,08,11,08,32,21.30
2004,08,11,08,33,21.40
2004,08,11,08,34,21.80
2004,08,11,08,35,21.90
2004,08,11,08,36,21.90
2004,08,11,08,37,22.00
2004,08,11,08,38,21.90
2004,08,11,08,39,22.00
2004,08,11,08,40,22.00
2004,08,11,08,41,22.10
2004,08,11,08,42,22.10
2004,08,11,08,43,22.20
2004,08,11,08,44,22.40
2004,08,11,08,45,22.40
2004,08,11,08,46,22.30
2004,08,11,08,47,22.20
2004,08,11,08,48,22.10
2004,08,11,08,49,22.00
2004,08,11,08,50,21.90
2004,08,11,08,51,21.70
2004,08,11,08,52,21.60
2004,08,11,08,53,21.60
2004,08,11,08,54,21.60
2004,08,11,08,55,21.60
2004,08,11,08,56,21.60
2004,08,11,08,57,21.60
2004,08,11,08,58,21.60
2004,08,11,08,59,21.40
2004,08,11,09,00,21.40
2004,08,11,09,01,21.40
2004,08,11,09,02,21.40
2004,08,11,09,03,21.40
2004,08,11,09,04,21.30
2004,08,11,09,05,21.30
2004,08,11,09,06,21.30
2004,08,11,09,07,21.20
2004,08,11,09,08,21.20
2004,08,11,09,09,21.20
2004,08,11,09,10,21.30
2004,08,11,09,11,21.40
2004,08,11,09,12,21.40
2004,08,11,09,13,21.50
2004,08,11,09,14,21.70
2004,08,11,09,15,21.90
2004,08,11,09,16,22.10
2004,08,11,09,17,22.20
2004,08,11,09,18,22.30
2004,08,11,09,19,22.20
2004,08,11,09,20,22.20
2004,08,11,09,21,22.10
2004,08,11,09,22,22.10
2004,08,11,09,23,22.00
2004,08,11,09,24,21.80
2004,08,11,09,25,21.70
2004,08,11,09,26,21.50
2004,08,11,09,27,21.40
2004,08,11,09,28,21.30
2004,08,11,09,29,21.30
2004,08,11,09,30,21.30
2004,08,11,09,31,21.30
2004,08,11,09,32,21.30
2004,08,11,09,33,21.30
2004,08,11,09,34,21.40
2004,08,11,09,35,21.40
2004,08,11,09,36,21.30
2004,08,11,09,37,21.30
2004,08,11,09,38,21.30
2004,08,11,09,39,21.30
2004,08,11,09,40,21.40
2004,08,11,09,41,21.40
2004,08,11,09,42,21.40
2004,08,11,09,43,21.40
2004,08,11,09,44,21.40
2004,08,11,09,45,21.40
2004,08,11,09,46,21.40
2004,08,11,09,47,21.40
2004,08,11,09,48,21.40
2004,08,11,09,49,21.40
2004,08,11,09,50,21.40
2004,08,11,09,51,21.30
2004,08,11,09,52,21.30
2004,08,11,09,53,21.40
2004,08,11,09,54,21.40
2004,08,11,09,55,21.50
2004,08,11,09,56,21.60
2004,08,11,09,57,21.70
2004,08,11,09,58,21.70
2004,08,11,09,59,21.70
2004,08,11,10,00,21.80
2004,08,11,10,01,21.80
2004,08,11,10,02,21.80
2004,08,11,10,03,21.80
2004,08,11,10,04,21.80
2004,08,11,10,05,21.80
2004,08,11,10,06,21.80
2004,08,11,10,07,21.80
2004,08,11,10,08,21.80
2004,08,11,10,09,21.80
2004,08,11,10,10,21.80
2004,08,11,10,11,21.70
2004,08,11,10,12,21.80
2004,08,11,10,13,21.80
2004,08,11,10,14,21.80
2004,08,11,10,15,21.80
2004,08,11,10,16,22.00
2004,08,11,10,17,22.00
2004,08,11,10,18,22.10
2004,08,11,10,19,22.10
2004,08,11,10,20,22.10
2004,08,11,10,21,22.10
2004,08,11,10,22,22.10
2004,08,11,10,23,22.10
2004,08,11,10,24,22.10
2004,08,11,10,25,22.10
2004,08,11,10,26,22.20
2004,08,11,10,27,22.20
2004,08,11,10,28,22.20
2004,08,11,10,29,22.20
2004,08,11,10,30,22.20
2004,08,11,10,31,22.20
2004,08,11,10,32,22.10
2004,08,11,10,33,22.10
2004,08,11,10,34,22.10
2004,08,11,10,35,22.10
2004,08,11,10,36,22.20
2004,08,11,10,37,22.20
2004,08,11,10,38,22.20
2004,08,11,10,39,22.20
2004,08,11,10,40,22.20
2004,08,11,10,41,22.30
2004,08,11,10,42,22.30
2004,08,11,10,43,22.30
2004,08,11,10,44,22.30
2004,08,11,10,45,22.30
2004,08,11,10,46,22.40
2004,08,11,10,47,22.50
2004,08,11,10,48,22.50
2004,08,11,10,49,22.40
2004,08,11,10,50,22.40
2004,08,11,10,51,22.40
2004,08,11,10,52,22.40
2004,08,11,10,53,22.40
2004,08,11,10,54,22.40
2004,08,11,10,55,22.50
2004,08,11,10,56,22.50
2004,08,11,10,57,22.50
2004,08,11,10,58,22.50
2004,08,11,10,59,22.60
2004,08,11,11,00,22.60
2004,08,11,11,01,22.60
2004,08,11,11,02,22.70
2004,08,11,11,03,22.70
2004,08,11,11,04,22.70
2004,08,11,11,05,22.70
2004,08,11,11,06,22.90
2004,08,11,11,07,23.00
2004,08,11,11,08,23.10
2004,08,11,11,09,23.20
2004,08,11,11,10,23.20
2004,08,11,11,11,23.30
2004,08,11,11,12,23.40
2004,08,11,11,13,23.40
2004,08,11,11,14,23.30
2004,08,11,11,15,23.30
2004,08,11,11,16,23.30
2004,08,11,11,17,23.30
2004,08,11,11,18,23.30
2004,08,11,11,19,23.30
2004,08,11,11,20,23.40
2004,08,11,11,21,23.40
2004,08,11,11,22,23.40
2004,08,11,11,23,23.40
2004,08,11,11,24,23.50
2004,08,11,11,25,23.60
2004,08,11,11,26,23.60
2004,08,11,11,27,23.60
2004,08,11,11,28,23.70
2004,08,11,11,29,23.70
2004,08,11,11,30,23.70
2004,08,11,11,31,23.60
2004,08,11,11,32,23.40
2004,08,11,11,33,23.30
2004,08,11,11,34,23.30
2004,08,11,11,35,23.30
2004,08,11,11,36,23.40
2004,08,11,11,37,23.40
2004,08,11,11,38,23.30
2004,08,11,11,39,23.20
2004,08,11,11,40,23.30
2004,08,11,11,41,23.30
2004,08,11,11,42,23.40
2004,08,11,11,43,23.50
2004,08,11,11,44,23.60
2004,08,11,11,45,23.60
2004,08,11,11,46,23.70
2004,08,11,11,47,23.70
2004,08,11,11,48,23.70
2004,08,11,11,49,23.80
2004,08,11,11,50,23.80
2004,08,11,11,51,23.70
2004,08,11,11,52,23.80
2004,08,11,11,53,23.80
2004,08,11,11,54,23.70
2004,08,11,11,55,23.70
2004,08,11,11,56,23.80
2004,08,11,11,57,23.80
2004,08,11,11,58,23.80
2004,08,11,11,59,23.80
2004,08,11,12,00,23.80
2004,08,11,12,01,23.80
2004,08,11,12,02,23.90
2004,08,11,12,03,23.90
2004,08,11,12,04,24.00
2004,08,11,12,05,24.10
2004,08,11,12,06,24.10
2004,08,11,12,07,24.20
2004,08,11,12,08,24.30
2004,08,11,12,09,24.30
2004,08,11,12,10,24.30
2004,08,11,12,11,24.30
2004,08,11,12,12,24.40
2004,08,11,12,13,24.40
2004,08,11,12,14,24.50
2004,08,11,12,15,24.70
2004,08,11,12,16,24.80
2004,08,11,12,17,24.90
2004,08,11,12,18,25.00
2004,08,11,12,19,25.10
2004,08,11,12,20,25.20
2004,08,11,12,21,25.00
2004,08,11,12,22,24.90
2004,08,11,12,23,24.70
2004,08,11,12,24,24.50
2004,08,11,12,25,24.30
2004,08,11,12,26,24.20
2004,08,11,12,27,24.10
2004,08,11,12,28,24.10
2004,08,11,12,29,24.00
2004,08,11,12,30,23.90
2004,08,11,12,31,23.80
2004,08,11,12,32,23.70
2004,08,11,12,33,23.70
2004,08,11,12,34,23.70
2004,08,11,12,35,23.80
2004,08,11,12,36,24.00
2004,08,11,12,37,24.10
2004,08,11,12,38,24.10
2004,08,11,12,39,23.90
2004,08,11,12,40,23.80
2004,08,11,12,41,23.90
2004,08,11,12,42,23.90
2004,08,11,12,43,23.90
2004,08,11,12,44,23.90
2004,08,11,12,45,24.10
2004,08,11,12,46,24.10
2004,08,11,12,47,24.20
2004,08,11,12,48,24.50
2004,08,11,12,49,24.70
2004,08,11,12,50,24.90
2004,08,11,12,51,25.10
2004,08,11,12,52,25.30
2004,08,11,12,53,25.40
2004,08,11,12,54,25.50
2004,08,11,12,55,25.60
2004,08,11,12,56,25.80
2004,08,11,12,57,25.90
2004,08,11,12,58,25.80
2004,08,11,12,59,25.70
2004,08,11,13,00,25.50
2004,08,11,13,01,25.50
2004,08,11,13,02,25.40
2004,08,11,13,03,25.40
2004,08,11,13,04,25.20
2004,08,11,13,05,25.20
2004,08,11,13,06,25.20
2004,08,11,13,07,25.30
2004,08,11,13,08,25.30
2004,08,11,13,09,25.40
2004,08,11,13,10,25.40
2004,08,11,13,11,25.40
2004,08,11,13,12,25.40
2004,08,11,13,13,25.40
2004,08,11,13,14,25.40
2004,08,11,13,15,25.40
2004,08,11,13,16,25.40
2004,08,11,13,17,25.40
2004,08,11,13,18,25.50
2004,08,11,13,19,25.60
2004,08,11,13,20,25.60
2004,08,11,13,21,25.60
2004,08,11,13,22,25.60
2004,08,11,13,23,25.80
2004,08,11,13,24,25.80
2004,08,11,13,25,25.80
2004,08,11,13,26,25.90
2004,08,11,13,27,25.90
2004,08,11,13,28,26.10
2004,08,11,13,29,26.10
2004,08,11,13,30,26.30
2004,08,11,13,31,26.30
2004,08,11,13,32,26.40
2004,08,11,13,33,26.50
2004,08,11,13,34,26.50
2004,08,11,13,35,26.40
2004,08,11,13,36,26.40
2004,08,11,13,37,26.50
2004,08,11,13,38,26.60
2004,08,11,13,39,26.60
2004,08,11,13,40,26.60
2004,08,11,13,41,26.70
2004,08,11,13,42,26.80
2004,08,11,13,43,26.90
2004,08,11,13,44,26.80
2004,08,11,13,45,26.70
2004,08,11,13,46,26.60
2004,08,11,13,47,26.40
2004,08,11,13,48,26.20
2004,08,11,13,49,26.00
2004,08,11,13,50,26.00
2004,08,11,13,51,25.90
2004,08,11,13,52,25.90
2004,08,11,13,53,26.00
2004,08,11,13,54,26.20
2004,08,11,13,55,26.50
2004,08,11,13,56,26.60
2004,08,11,13,57,26.70
2004,08,11,13,58,26.80
2004,08,11,13,59,27.00
2004,08,11,14,00,27.10
2004,08,11,14,01,27.30
2004,08,11,14,02,27.40
2004,08,11,14,03,27.50
2004,08,11,14,04,27.60
2004,08,11,14,05,27.80
2004,08,11,14,06,28.00
2004,08,11,14,07,27.90
2004,08,11,14,08,27.70
2004,08,11,14,09,27.50
2004,08,11,14,10,27.50
2004,08,11,14,11,27.60
2004,08,11,14,12,27.20
2004,08,11,14,13,27.00
2004,08,11,14,14,26.90
2004,08,11,14,15,26.70
2004,08,11,14,16,26.60
2004,08,11,14,17,26.60
2004,08,11,14,18,26.60
2004,08,11,14,19,26.50
2004,08,11,14,20,26.50
2004,08,11,14,21,26.60
2004,08,11,14,22,26.70
2004,08,11,14,23,26.80
2004,08,11,14,24,26.90
2004,08,11,14,25,26.80
2004,08,11,14,26,26.60
2004,08,11,14,27,26.40
2004,08,11,14,28,26.40
2004,08,11,14,29,26.30
2004,08,11,14,30,26.50
2004,08,11,14,31,26.70
2004,08,11,14,32,26.70
2004,08,11,14,33,26.70
2004,08,11,14,34,26.60
2004,08,11,14,35,26.60
2004,08,11,14,36,26.60
2004,08,11,14,37,26.60
2004,08,11,14,38,26.60
2004,08,11,14,39,26.60
2004,08,11,14,40,26.60
2004,08,11,14,41,26.60
2004,08,11,14,42,26.40
2004,08,11,14,43,26.30
2004,08,11,14,44,26.20
2004,08,11,14,45,25.90
2004,08,11,14,46,25.70
2004,08,11,14,47,25.70
2004,08,11,14,48,25.60
2004,08,11,14,49,25.60
2004,08,11,14,50,25.60
2004,08,11,14,51,25.70
2004,08,11,14,52,25.90
2004,08,11,14,53,26.00
2004,08,11,14,54,26.20
2004,08,11,14,55,26.40
2004,08,11,14,56,26.50
2004,08,11,14,57,26.60
2004,08,11,14,58,26.60
2004,08,11,14,59,26.60
2004,08,11,15,00,26.60
2004,08,11,15,01,26.60
2004,08,11,15,02,26.60
2004,08,11,15,03,26.50
2004,08,11,15,04,26.50
2004,08,11,15,05,26.60
2004,08,11,15,06,26.50
2004,08,11,15,07,26.60
2004,08,11,15,08,26.80
2004,08,11,15,09,27.00
2004,08,11,15,10,27.20
2004,08,11,15,11,27.30
2004,08,11,15,12,27.20
2004,08,11,15,13,27.00
2004,08,11,15,14,26.90
2004,08,11,15,15,27.00
2004,08,11,15,16,26.80
2004,08,11,15,17,26.60
2004,08,11,15,18,26.60
2004,08,11,15,19,26.60
2004,08,11,15,20,26.60
2004,08,11,15,21,26.60
2004,08,11,15,22,26.60
2004,08,11,15,23,26.40
2004,08,11,15,24,26.40
2004,08,11,15,25,26.30
2004,08,11,15,26,26.20
2004,08,11,15,27,26.00
2004,08,11,15,28,26.00
2004,08,11,15,29,25.90
2004,08,11,15,30,25.90
2004,08,11,15,31,25.90
2004,08,11,15,32,25.90
2004,08,11,15,33,25.90
2004,08,11,15,34,26.00
2004,08,11,15,35,26.10
2004,08,11,15,36,26.30
2004,08,11,15,37,26.40
2004,08,11,15,38,26.30
2004,08,11,15,39,26.30
2004,08,11,15,40,26.20
2004,08,11,15,41,26.10
2004,08,11,15,42,26.10
2004,08,11,15,43,26.20
2004,08,11,15,44,26.30
2004,08,11,15,45,26.40
2004,08,11,15,46,26.40
2004,08,11,15,47,26.50
2004,08,11,15,48,26.40
2004,08,11,15,49,26.40
2004,08,11,15,50,26.40
2004,08,11,15,51,26.50
2004,08,11,15,52,26.60
2004,08,11,15,53,26.90
2004,08,11,15,54,26.90
2004,08,11,15,55,27.00
2004,08,11,15,56,26.90
2004,08,11,15,57,26.90
2004,08,11,15,58,27.00
2004,08,11,15,59,27.30
2004,08,11,16,00,27.60
2004,08,11,16,01,28.00
2004,08,11,16,02,28.30
2004,08,11,16,03,28.50
2004,08,11,16,04,28.70
2004,08,11,16,05,28.90
2004,08,11,16,06,29.00
2004,08,11,16,07,29.20
2004,08,11,16,08,29.50
2004,08,11,16,09,29.50
2004,08,11,16,10,29.80
2004,08,11,16,11,30.10
2004,08,11,16,12,30.10
2004,08,11,16,13,30.00
2004,08,11,16,14,30.00
2004,08,11,16,15,30.00
2004,08,11,16,16,30.00
2004,08,11,16,17,30.00
2004,08,11,16,18,30.00
2004,08,11,16,19,30.00
2004,08,11,16,20,30.00
2004,08,11,16,21,30.00
2004,08,11,16,22,30.10
2004,08,11,16,23,30.10
2004,08,11,16,24,30.10
2004,08,11,16,25,30.20
2004,08,11,16,26,30.40
2004,08,11,16,27,30.40
2004,08,11,16,28,30.60
2004,08,11,16,29,30.20
2004,08,11,16,30,30.20
2004,08,11,16,31,30.00
2004,08,11,16,32,29.80
2004,08,11,16,33,29.50
2004,08,11,16,34,29.40
2004,08,11,16,35,29.40
2004,08,11,16,36,29.50
2004,08,11,16,37,29.60
2004,08,11,16,38,29.60
2004,08,11,16,39,29.70
2004,08,11,16,40,29.80
2004,08,11,16,41,29.90
2004,08,11,16,42,29.90
2004,08,11,16,43,30.00
2004,08,11,16,44,29.90
2004,08,11,16,45,29.90
2004,08,11,16,46,30.00
2004,08,11,16,47,29.70
2004,08,11,16,48,29.70
2004,08,11,16,49,29.70
2004,08,11,16,50,29.70
2004,08,11,16,51,29.50
2004,08,11,16,52,29.40
2004,08,11,16,53,29.20
2004,08,11,16,54,29.10
2004,08,11,16,55,29.00
2004,08,11,16,56,29.00
2004,08,11,16,57,29.10
2004,08,11,16,58,29.00
2004,08,11,16,59,28.90
2004,08,11,17,00,28.80
2004,08,11,17,01,28.70
2004,08,11,17,02,28.80
2004,08,11,17,03,28.80
2004,08,11,17,04,28.80
2004,08,11,17,05,28.70
2004,08,11,17,06,28.70
2004,08,11,17,07,28.60
2004,08,11,17,08,28.50
2004,08,11,17,09,28.70
2004,08,11,17,10,28.60
2004,08,11,17,11,28.50
2004,08,11,17,12,28.30
2004,08,11,17,13,28.30
2004,08,11,17,14,28.30
2004,08,11,17,15,28.30
2004,08,11,17,16,28.50
2004,08,11,17,17,28.60
2004,08,11,17,18,28.80
2004,08,11,17,19,29.00
2004,08,11,17,20,29.10
2004,08,11,17,21,29.30
2004,08,11,17,22,29.40
2004,08,11,17,23,29.40